Amateur Radio Satellites - All Passes

Search period start: 20 May 2013 02:44
Search period end: 21 May 2013 02:44
Location: Decatur Area Astronomy Club, 40.0275°N, 88.7810°W

Satellite Date Start Highest point End Downlink Frequencies (MHz)
Time Altitude Azimuth
Uribyol 2 20 May 02:47:46 02:52:58 64° 102° (ESE) 02:58:09 436.500 FM
Oscar 19 20 May 02:57:21 03:02:34 90° 192° (SSW) 03:07:43 437.125 CW, 437.150 USB
MaSat-1 20 May 03:02:22 03:09:36 70° 296° (WNW) 03:15:35 437.345 MHz
ISS 20 May 03:07:37 03:10:09 20° 132° (SE) 03:12:41 145.800 FM
Uosat F 20 May 03:16:49 03:19:52 16° 92° (E) 03:22:54 435.120 FM
RS-15 20 May 03:21:05 03:31:40 54° 248° (WSW) 03:42:03 29.354 - 29.394 USB, Beacon 29.352 USB
AO-Echo 20 May 03:25:23 03:29:57 46° 99° (E) 03:34:34 ?
TMSAT-1 20 May 03:28:11 03:29:30 11° 88° (E) 03:30:50 436.925 FM
Oscar 16 20 May 03:36:36 03:41:14 34° 292° (WNW) 03:45:49 437.025 USB, Beacon 2401.1428
AO-27 20 May 03:38:06 03:43:04 45° 290° (WNW) 03:48:00 436.795 MHz FM
Gurwin Techsat 1B 20 May 03:45:31 03:49:57 26° 95° (E) 03:54:21 435.225 FM
ITAMSAT 1 20 May 03:45:38 03:50:28 39° 291° (WNW) 03:55:18 435.822 SSB
Uribyol 2 20 May 04:28:43 04:31:55 17° 298° (WNW) 04:35:07 436.500 FM
Oscar 19 20 May 04:39:27 04:41:07 12° 301° (WNW) 04:42:48 437.125 CW, 437.150 USB
ISS 20 May 04:43:28 04:46:39 43° 328° (NNW) 04:49:53 145.800 FM
MaSat-1 20 May 04:49:12 04:52:29 14° 311° (NW) 04:55:30 437.345 MHz
Uosat F 20 May 04:54:06 04:59:01 56° 288° (WNW) 05:03:55 435.120 FM
TMSAT-1 20 May 05:04:45 05:10:05 85° 284° (WNW) 05:15:23 436.925 FM
AO-Echo 20 May 05:05:12 05:08:25 18° 295° (WNW) 05:11:39 ?
STRAND 1 20 May 05:09:02 05:11:57 16° 62° (ENE) 05:14:53 ?
AO-7 20 May 05:17:08 05:24:54 40° 99° (E) 05:32:36 29.400 - 29.500 MHz
Gurwin Techsat 1B 20 May 05:25:07 05:29:59 38° 291° (WNW) 05:34:51 435.225 FM
Saudisat 1A 20 May 05:30:57 05:33:44 16° 109° (ESE) 05:36:32 436.775 MHz
KITSAT 1 20 May 06:05:26 06:09:10 14° 23° (NNE) 06:12:53 435.175 FM
ISS 20 May 06:22:13 06:24:03 14° 347° (NNW) 06:25:54 145.800 FM
Hamsat 20 May 06:44:56 06:45:53 11° 90° (E) 06:46:49 145.90 MHz
STRAND 1 20 May 06:45:33 06:50:36 66° 258° (WSW) 06:55:41 ?
TMSAT-1 20 May 06:47:40 06:49:10 11° 302° (WNW) 06:50:41 436.925 FM
Sapphire 20 May 06:55:01 06:57:43 14° 103° (ESE) 07:00:26 437.095 MHz 1200 baud AX-25 AFSK
Saudisat 1A 20 May 07:08:30 07:12:58 55° 306° (NW) 07:17:31 436.775 MHz
AO-7 20 May 07:09:53 07:17:42 46° 297° (WNW) 07:25:30 29.400 - 29.500 MHz
SO-67 20 May 07:37:28 07:38:39 11° 91° (E) 07:39:50 435.3500 MHz FM
KITSAT 1 20 May 07:59:31 08:07:10 42° 49° (NE) 08:14:45 435.175 FM
ISS 20 May 08:00:24 08:01:55 12° 8° (N) 08:03:25 145.800 FM
PCSat 20 May 08:02:19 08:07:37 62° 115° (ESE) 08:12:59 145.825 MHz
JAS-1B 20 May 08:06:40 08:12:08 33° 95° (E) 08:17:12 435.800 - 435.900 CW/SSB
Hamsat 20 May 08:18:02 08:22:21 65° 285° (WNW) 08:26:40 145.90 MHz
Sapphire 20 May 08:35:04 08:40:27 75° 300° (WNW) 08:45:54 437.095 MHz 1200 baud AX-25 AFSK
SO-67 20 May 09:08:56 09:12:18 39° 286° (WNW) 09:15:40 435.3500 MHz FM
ISS 20 May 09:36:25 09:39:28 30° 28° (NNE) 09:42:30 145.800 FM
SO-50 20 May 09:41:54 09:46:43 89° 121° (ESE) 09:51:29 436.795 FM
PCSat 20 May 09:47:25 09:51:29 21° 313° (NW) 09:55:36 145.825 MHz
KITSAT 1 20 May 09:54:58 10:02:38 47° 249° (WSW) 10:10:16 435.175 FM
JAS-1B 20 May 09:57:25 10:02:47 31° 296° (WNW) 10:07:44 435.800 - 435.900 CW/SSB
Oscar 11 20 May 10:09:10 10:12:58 28° 96° (E) 10:16:45 145.825 FM, Beacon 2401.500 USB
OPAL 20 May 10:11:11 10:13:40 14° 93° (E) 10:16:08 ?
HO-68 20 May 10:15:59 10:23:04 60° 102° (ESE) 10:30:07 435.675 MHz FM
Sapphire 20 May 10:22:16 10:24:51 13° 320° (NW) 10:27:27 437.095 MHz 1200 baud AX-25 AFSK
JAS-2 20 May 10:24:28 10:31:21 54° 98° (E) 10:37:23 435.800 - 435.900 CW/SSB, 435.910 FM
Oscar 10/S400 20 May 10:38:43 12:21:27 17° 279° (W) 15:25:29 145.825 - 145.975 CW/USB, Beacon 145.810 USB
ISS 20 May 11:13:06 11:16:11 34° 225° (SW) 11:19:16 145.800 FM
UOSAT-12 20 May 11:21:22 11:24:28 19° 110° (ESE) 11:27:36 437.025 FM, 437.400 FM
SO-50 20 May 11:25:19 11:27:59 15° 320° (NW) 11:30:38 436.795 FM
Oscar 11 20 May 11:45:32 11:49:05 25° 292° (WNW) 11:52:37 145.825 FM, Beacon 2401.500 USB
OPAL 20 May 11:48:02 11:53:01 65° 289° (WNW) 11:57:55 ?
MaSat-1 20 May 11:49:41 11:52:52 33° 57° (ENE) 11:55:29 437.345 MHz
HO-68 20 May 12:04:32 12:10:16 27° 300° (WNW) 12:16:00 435.675 MHz FM
JAS-2 20 May 12:10:09 12:15:51 27° 299° (WNW) 12:21:03 435.800 - 435.900 CW/SSB, 435.910 FM
Uribyol 2 20 May 12:30:01 12:31:37 11° 59° (ENE) 12:33:14 436.500 FM
Oscar 19 20 May 12:37:05 12:40:03 16° 61° (ENE) 12:43:01 437.125 CW, 437.150 USB
UOSAT-12 20 May 12:59:56 13:04:17 46° 307° (NW) 13:08:41 437.025 FM, 437.400 FM
PANSAT 20 May 13:00:52 13:01:41 11° 167° (SSE) 13:02:30 not established
Oscar 16 20 May 13:13:44 13:18:31 39° 69° (ENE) 13:23:20 437.025 USB, Beacon 2401.1428
AO-27 20 May 13:16:58 13:21:27 31° 67° (ENE) 13:25:58 436.795 MHz FM
ITAMSAT 1 20 May 13:24:06 13:28:44 35° 68° (ENE) 13:33:24 435.822 SSB
Saudisat 1A 20 May 13:58:10 14:00:45 15° 40° (NE) 14:03:17 436.775 MHz
Uribyol 2 20 May 14:05:08 14:10:18 88° 75° (ENE) 14:15:32 436.500 FM
Oscar 19 20 May 14:13:39 14:18:49 68° 258° (WSW) 14:24:01 437.125 CW, 437.150 USB
Uosat F 20 May 14:29:34 14:33:19 22° 65° (ENE) 14:37:05 435.120 FM
AO-7 20 May 14:30:13 14:32:21 11° 43° (NE) 14:34:28 29.400 - 29.500 MHz
AO-Echo 20 May 14:37:51 14:42:39 57° 73° (ENE) 14:47:21 ?
PANSAT 20 May 14:39:03 14:41:19 15° 179° (S) 14:43:34 not established
TMSAT-1 20 May 14:47:24 14:50:52 18° 63° (ENE) 14:54:21 436.925 FM
Oscar 16 20 May 14:53:47 14:57:59 25° 266° (W) 15:02:13 437.025 USB, Beacon 2401.1428
AO-27 20 May 14:56:22 15:00:55 31° 264° (W) 15:05:30 436.795 MHz FM
ITAMSAT 1 20 May 15:03:55 15:08:16 27° 265° (W) 15:12:39 435.822 SSB
Gurwin Techsat 1B 20 May 15:05:58 15:10:50 39° 69° (ENE) 15:15:44 435.225 FM
RS-15 20 May 15:32:27 15:41:57 28° 103° (ESE) 15:51:09 29.354 - 29.394 USB, Beacon 29.352 USB
Saudisat 1A 20 May 15:36:29 15:41:04 82° 239° (WSW) 15:45:30 436.775 MHz
Sapphire 20 May 15:42:09 15:44:51 14° 41° (NE) 15:47:31 437.095 MHz 1200 baud AX-25 AFSK
Uosat F 20 May 16:07:06 16:11:50 43° 261° (W) 16:16:36 435.120 FM
AO-7 20 May 16:15:17 16:23:11 52° 65° (ENE) 16:31:08 29.400 - 29.500 MHz
AO-Echo 20 May 16:19:07 16:21:47 15° 268° (W) 16:24:25 ?
PANSAT 20 May 16:19:45 16:20:57 11° 192° (SSW) 16:22:09 not established
TMSAT-1 20 May 16:25:06 16:30:19 59° 259° (W) 16:35:34 436.925 FM
SO-50 20 May 16:36:51 16:37:53 11° 36° (NE) 16:38:54 436.795 FM
Gurwin Techsat 1B 20 May 16:46:33 16:50:54 26° 265° (W) 16:55:16 435.225 FM
PCSat 20 May 16:51:03 16:56:14 43° 55° (NE) 17:01:23 145.825 MHz
Sapphire 20 May 17:23:46 17:29:13 76° 61° (ENE) 17:34:38 437.095 MHz 1200 baud AX-25 AFSK
RS-15 20 May 17:41:08 17:53:14 80° 303° (WNW) 18:04:52 29.354 - 29.394 USB, Beacon 29.352 USB
AO-7 20 May 18:08:48 18:16:10 35° 263° (W) 18:23:36 29.400 - 29.500 MHz
SO-50 20 May 18:14:53 18:19:26 65° 56° (NE) 18:23:52 436.795 FM
PCSat 20 May 18:34:59 18:39:24 26° 252° (WSW) 18:43:48 145.825 MHz
JAS-1B 20 May 18:48:20 18:56:37 39° 66° (ENE) 19:03:51 435.800 - 435.900 CW/SSB
STRAND 1 20 May 18:56:59 19:01:54 44° 99° (E) 19:06:48 ?
Sapphire 20 May 19:09:18 19:11:56 14° 257° (WSW) 19:14:35 437.095 MHz 1200 baud AX-25 AFSK
Hamsat 20 May 19:11:20 19:15:32 84° 77° (ENE) 19:19:47 145.90 MHz
SO-67 20 May 19:43:47 19:47:19 62° 76° (ENE) 19:50:51 435.3500 MHz FM
UOSAT-12 20 May 19:50:56 19:54:01 17° 43° (NE) 19:57:05 437.025 FM, 437.400 FM
SO-50 20 May 19:57:31 19:59:27 13° 252° (WSW) 20:01:22 436.795 FM
RS-15 20 May 19:57:59 20:07:46 29° 329° (NNW) 20:17:15 29.354 - 29.394 USB, Beacon 29.352 USB
JAS-2 20 May 20:34:49 20:41:03 28° 61° (ENE) 20:47:22 435.800 - 435.900 CW/SSB, 435.910 FM
STRAND 1 20 May 20:36:54 20:40:48 22° 295° (WNW) 20:44:42 ?
JAS-1B 20 May 20:37:45 20:46:54 52° 260° (W) 20:54:54 435.800 - 435.900 CW/SSB
HO-68 20 May 20:43:52 20:50:29 43° 65° (ENE) 20:57:06 435.675 MHz FM
Oscar 11 20 May 21:04:28 21:07:47 22° 67° (ENE) 21:11:06 145.825 FM, Beacon 2401.500 USB
OPAL 20 May 21:24:38 21:28:52 26° 64° (ENE) 21:33:06 ?
UOSAT-12 20 May 21:30:04 21:34:38 66° 241° (WSW) 21:39:11 437.025 FM, 437.400 FM
JAS-2 20 May 22:17:49 22:25:23 67° 259° (W) 22:33:15 435.800 - 435.900 CW/SSB, 435.910 FM
RS-15 20 May 22:18:03 22:25:38 19° 5° (N) 22:33:00 29.354 - 29.394 USB, Beacon 29.352 USB
KITSAT 1 20 May 22:28:14 22:34:48 29° 105° (ESE) 22:41:23 435.175 FM
HO-68 20 May 22:31:46 22:38:12 36° 262° (W) 22:44:40 435.675 MHz FM
Oscar 11 20 May 22:39:59 22:43:50 31° 263° (W) 22:47:42 145.825 FM, Beacon 2401.500 USB
OPAL 20 May 23:02:42 23:07:33 39° 260° (W) 23:12:24 ?
JAS-2 21 May 00:09:35 00:11:41 11° 277° (W) 00:13:48 435.800 - 435.900 CW/SSB, 435.910 FM
KITSAT 1 21 May 00:21:38 00:29:37 63° 304° (NW) 00:37:40 435.175 FM
RS-15 21 May 00:32:24 00:42:38 38° 39° (NE) 00:52:30 29.354 - 29.394 USB, Beacon 29.352 USB
MaSat-1 21 May 00:41:42 00:43:59 12° 100° (E) 00:46:11 437.345 MHz
Oscar 16 21 May 01:27:42 01:30:25 14° 90° (E) 01:33:06 437.025 USB, Beacon 2401.1428
AO-27 21 May 01:33:01 01:34:25 11° 89° (E) 01:35:49 436.795 MHz FM
ITAMSAT 1 21 May 01:39:23 01:41:41 13° 90° (E) 01:43:59 435.822 SSB
MaSat-1 21 May 02:18:23 02:25:37 73° 113° (ESE) 02:31:38 437.345 MHz
Uribyol 2 21 May 02:18:59 02:23:43 34° 97° (E) 02:28:25 436.500 FM
ISS 21 May 02:20:26 02:21:34 11° 128° (SE) 02:22:43 145.800 FM
KITSAT 1 21 May 02:21:33 02:26:48 18° 328° (NNW) 02:32:06 435.175 FM
Oscar 19 21 May 02:26:11 02:31:09 45° 99° (E) 02:36:04 437.125 CW, 437.150 USB

Developed and maintained by Chris Peat, Heavens-Above GmbH. Please read the updated FAQ before sending e-mail. Imprint. DLR
